Captiva — WDF3796 — position and weather

sailwx.info

Track history (hours):
 
Tides and Currents Weather Stations Pressure Air Temp Water Temp Dewpoint Dewpoint Depression Visibility Wind Speed Wind Dir Waves Ship Positions

Captiva

Owner: Callahan, Michael F, Swampscott, MA. More information available from US FCC via Universal Licensing System and Coast Guard Vessel Documentation Center.

Last reported at 2014-Sep-06 21:08 UTC. Time now 2014-Oct-24 23:53 UTC.
Position N 41°42' W 071°23'.
Warning: this ship's position is 48 days out of date.

Length 15 m.

Type: Sailing vessel. MMSI: 367444090.

Date/timePositionNaut miles runAvg speedWind from/ knotsBaromVisibWave heightAir tempDewpointWater temp
2014-Sep-06 21:08N 41°42' W 071°23'1 2.0
2014-Sep-06 20:33N 41°40' W 071°24'5 3.5
2014-Sep-06 19:15N 41°38' W 071°19'2 0.8
2014-Sep-06 16:32N 41°40' W 071°20'3 2.9
2014-Sep-06 15:28N 41°42' W 071°23'0 0.0
2014-Sep-06 14:28N 41°42' W 071°23'0 0.0
2014-Sep-06 13:28N 41°42' W 071°23'0 0.0
2014-Sep-06 12:28N 41°42' W 071°23'  
2014-Sep-01 18:31N 41°41' W 071°24'16 8.0
2014-Sep-01 16:33N 41°26' W 071°25'8 8.1
2014-Sep-01 15:33N 41°19' W 071°31'8 7.6
2014-Sep-01 14:33N 41°12' W 071°36'1 0.0
2014-Aug-31 02:24N 41°11' W 071°35'0 0.0
2014-Aug-31 01:33N 41°11' W 071°35'0 0.0
2014-Aug-30 17:30N 41°11' W 071°35'0 0.0
2014-Aug-29 20:16N 41°11' W 071°35'0 0.0
2014-Aug-29 19:31N 41°11' W 071°35'5 4.8
2014-Aug-29 18:33N 41°16' W 071°35'8 8.0
2014-Aug-29 17:33N 41°22' W 071°28'17 8.1
2014-Aug-29 15:29N 41°38' W 071°23'4 3.6
2014-Aug-29 14:30N 41°42' W 071°23'  
Track history (hours):
 
Tides and Currents Weather Stations Pressure Air Temp Water Temp Dewpoint Dewpoint Depression Visibility Wind Speed Wind Dir Waves Ship Positions

Captiva

Owner: Callahan, Michael F, Swampscott, MA. More information available from US FCC via Universal Licensing System and Coast Guard Vessel Documentation Center.

Last reported at 2014-Sep-06 21:08 UTC. Time now 2014-Oct-24 23:53 UTC.
Position N 41°42' W 071°23'.
Warning: this ship's position is 48 days out of date.

Length 15 m.

Type: Sailing vessel. MMSI: 367444090.

Date/timePositionNaut miles runAvg speedWind from/ knotsBaromVisibWave heightAir tempDewpointWater temp
2014-Sep-06 21:08N 41°42' W 071°23'1 2.0
2014-Sep-06 20:33N 41°40' W 071°24'5 3.5
2014-Sep-06 19:15N 41°38' W 071°19'2 0.8
2014-Sep-06 16:32N 41°40' W 071°20'3 2.9
2014-Sep-06 15:28N 41°42' W 071°23'0 0.0
2014-Sep-06 14:28N 41°42' W 071°23'0 0.0
2014-Sep-06 13:28N 41°42' W 071°23'0 0.0
2014-Sep-06 12:28N 41°42' W 071°23'  
2014-Sep-01 18:31N 41°41' W 071°24'16 8.0
2014-Sep-01 16:33N 41°26' W 071°25'8 8.1
2014-Sep-01 15:33N 41°19' W 071°31'8 7.6
2014-Sep-01 14:33N 41°12' W 071°36'1 0.0
2014-Aug-31 02:24N 41°11' W 071°35'0 0.0
2014-Aug-31 01:33N 41°11' W 071°35'0 0.0
2014-Aug-30 17:30N 41°11' W 071°35'0 0.0
2014-Aug-29 20:16N 41°11' W 071°35'0 0.0
2014-Aug-29 19:31N 41°11' W 071°35'5 4.8
2014-Aug-29 18:33N 41°16' W 071°35'8 8.0
2014-Aug-29 17:33N 41°22' W 071°28'17 8.1
2014-Aug-29 15:29N 41°38' W 071°23'4 3.6
2014-Aug-29 14:30N 41°42' W 071°23'  

Dump ship's entire track history